Location: Newark
(41.9000°N, 12.4833°E)
Time: 22:49:24
(UTC+00:00)

EO-88 - Pass Details

Date: 23 May 2019
Orbit: 485 x 494 km, 97.4° (Epoch: 15 June)

Event Time Altitude Azimuth Distance (km) Brightness Sun altitude
Exits shadow 20:38:47 54° 152° (SSE) 606 ? -18.7°
Maximum altitude 20:39:32 80° 77° (ENE) 507 ? -18.8°
Drops below altitude 10° 20:43:11 10° 350° (N) 1,699 ? -19.2°
Sets 20:45:17 0° 350° (N) 2,587 ? -19.4°
